[[{"header":{"parameterUnit":"m.s-1","parameterCategory":1,"la1":30.2992,"la2":30.254,"lo1":-89.0895,"lo2":-89.0443,"dy":0.0025,"dx":0.0025,"nx":19,"ny":19,"refTime":"2026-04-27T21:00:00:Z","depth":0,"parameterNumber":2,"parameterNumberName":"U-component_of_WINDS"},"data":[0,0,0,1.1916,1.1917,1.1918,1.1918,1.1925,1.1925,0,0,0,0,0,0,0,0,0,0,0,1.1921,1.1921,1.1916,1.1917,1.1918,1.1918,1.1925,1.1925,0,0,0,0,0,0,0,0,0,0,0,1.1921,1.1921,1.1922,1.1917,1.1918,1.1918,1.1925,1.1921,0,0,0,0,0,0,0,0,0,0,1.1919,1.1929,1.1921,1.1922,1.1917,1.1918,1.1918,1.1921,1.1922,1.1927,0,1.1935,0,1.193,1.1926,1.1926,0,0,0,1.1912,1.1929,1.1924,1.1922,1.1917,1.1918,1.1916,1.1921,1.1922,1.1928,1.1935,1.1935,1.193,1.1926,1.1926,1.1974,1.1974,0,0,1.1912,1.1924,1.1924,1.1925,1.1927,1.1916,1.1916,1.1922,1.193,1.1935,1.1935,1.193,1.1926,1.1926,1.1973,1.1974,0,0,0,1.1915,1.1924,1.1919,1.1925,1.1925,1.1916,1.1916,1.1929,1.1927,1.1935,1.1931,1.1926,1.1926,1.1973,1.1973,1.2005,0,0,0,1.1915,1.1926,1.192,1.1927,1.1925,1.1928,1.1924,1.1927,1.1927,1.193,1.1926,1.1927,1.1972,1.1973,1.2003,1.2018,0,0,0,1.1919,1.1926,1.1928,1.1927,1.1929,1.1927,1.1925,1.1926,1.1924,1.1926,1.1927,1.1972,1.1973,1.2001,1.2015,1.2032,0,0,0,1.1927,1.1957,1.1929,1.196,1.1929,1.1948,1.1925,1.1938,1.1944,1.1926,1.1972,1.1973,1.2001,1.2013,1.203,1.2048,1.2057,0,0,1.1971,1.1963,1.198,1.1955,1.1981,1.1946,1.1977,1.1971,1.196,1.1969,1.197,1.2004,1.2015,1.2032,1.2105,1.2112,0,0,0,1.1997,1.2009,1.2014,1.202,1.2016,1.2013,1.2001,1.1998,1.2005,1.1968,1.2015,1.2021,1.203,1.2038,1.2044,1.2051,1.1978,1.1978,1.1978,1.2076,1.206,1.2086,1.207,1.2076,1.2062,1.2065,1.2058,1.2041,1.2052,1.2055,1.2101,1.2111,1.2115,1.2122,1.2064,1.2064,1.2064,1.2064,1.2137,1.2151,1.2126,1.2143,1.2126,1.2139,1.2126,1.2113,1.2121,1.2098,1.2106,1.2082,1.2124,1.2129,1.2066,1.2066,1.2066,1.2065,1.2065,1.2185,1.2189,1.2186,1.2191,1.2196,1.2178,1.2187,1.2171,1.2155,1.2163,1.2162,1.2162,1.2158,1.2164,1.2164,1.2164,1.2165,1.2165,1.2165,1.2237,1.2232,1.2242,1.2239,1.2239,1.2237,1.2222,1.2221,1.2216,1.2203,1.2203,1.2183,1.2131,1.2118,1.2167,1.2167,1.2166,1.2166,1.2166,1.2303,1.2285,1.2301,1.2301,1.2294,1.2299,1.2278,1.2278,1.2275,1.2279,1.2257,1.2222,1.2212,1.2207,1.2195,1.2262,1.2262,1.2262,1.2262,1.2343,1.2336,1.2348,1.2349,1.2348,1.233,1.2345,1.2332,1.2316,1.2313,1.2301,1.2285,1.228,1.2273,1.2266,1.2255,1.2335,1.2335,1.2335,1.2382,1.2374,1.2391,1.2376,1.2369,1.2363,1.2376,1.2376,1.2354,1.2338,1.2309,1.2306,1.2279,1.2272,1.2255,1.2246,1.2225,0,0]},{"header":{"parameterUnit":"m.s-1","parameterCategory":1,"la1":30.2992,"la2":30.254,"lo1":-89.0895,"lo2":-89.0443,"dy":0.0025,"dx":0.0025,"nx":19,"ny":19,"refTime":"2026-04-27T21:00:00:Z","depth":0,"parameterNumber":3,"parameterNumberName":"V-component_of_WINDS"},"data":[0,0,0,5.8569,5.8573,5.8744,5.8744,5.896,5.8962,0,0,0,0,0,0,0,0,0,0,0,5.8522,5.8524,5.8568,5.8573,5.8744,5.8744,5.896,5.8962,0,0,0,0,0,0,0,0,0,0,0,5.8521,5.8523,5.8525,5.8574,5.8743,5.8744,5.8959,5.883,0,0,0,0,0,0,0,0,0,0,5.8664,5.8626,5.8523,5.8525,5.8575,5.8743,5.8744,5.8824,5.8838,5.8884,0,5.893,0,5.895,5.8977,5.8978,0,0,0,5.8569,5.8614,5.8657,5.8526,5.8576,5.8743,5.8665,5.8832,5.8848,5.8903,5.8933,5.8941,5.8953,5.8979,5.898,5.9266,5.9267,0,0,5.8559,5.8554,5.8646,5.8668,5.8648,5.866,5.8671,5.8842,5.8872,5.8933,5.8946,5.8957,5.898,5.8982,5.9265,5.9266,0,0,0,5.8535,5.8547,5.8586,5.8659,5.8691,5.8665,5.8677,5.8864,5.8878,5.8948,5.896,5.8981,5.8984,5.9263,5.9265,5.9338,0,0,0,5.8529,5.8533,5.8582,5.858,5.8688,5.8781,5.8696,5.8866,5.8886,5.8958,5.8981,5.8986,5.9261,5.9264,5.9332,5.9372,0,0,0,5.8509,5.8531,5.8558,5.858,5.8654,5.8778,5.8801,5.887,5.8893,5.8978,5.8987,5.926,5.9264,5.9327,5.9364,5.9446,0,0,0,5.8485,5.8618,5.8559,5.871,5.8652,5.8823,5.88,5.8927,5.9009,5.8982,5.9262,5.9265,5.9326,5.9359,5.9441,5.9514,5.9545,0,0,5.8649,5.8637,5.8726,5.8679,5.886,5.8798,5.8987,5.9065,5.9075,5.92,5.9207,5.9334,5.9363,5.9445,5.9717,5.9742,0,0,0,5.8776,5.884,5.8889,5.8969,5.9034,5.9092,5.9142,5.917,5.9277,5.914,5.9386,5.9403,5.9451,5.9486,5.9507,5.9548,5.9281,5.9281,5.9281,5.8999,5.9008,5.9156,5.9186,5.9262,5.9313,5.9374,5.942,5.9405,5.9462,5.95,5.9665,5.9706,5.9722,5.9764,5.9539,5.954,5.954,5.954,5.9238,5.933,5.9308,5.9444,5.9451,5.9563,5.9614,5.96,5.9702,5.9638,5.968,5.9609,5.9748,5.9785,5.9546,5.9545,5.9544,5.9543,5.9543,5.9385,5.9431,5.9465,5.9581,5.9667,5.969,5.9791,5.9792,5.9794,5.9836,5.9875,5.9874,5.9872,5.9855,5.9855,5.9856,5.9856,5.9857,5.9857,5.9524,5.9561,5.9648,5.9728,5.9778,5.9844,5.9894,5.9942,5.9995,5.9988,5.9988,5.9966,5.9761,5.9709,5.9866,5.9864,5.9863,5.9862,5.9862,5.9764,5.971,5.9844,5.9895,5.9987,6.0072,6.0073,6.017,6.021,6.0258,6.0227,6.0075,6.0062,6.0045,6.0002,6.0226,6.0226,6.0226,6.0226,5.9888,5.9882,6.0019,6.01,6.0179,6.0194,6.0339,6.0378,6.0408,6.0432,6.04,6.0343,6.0326,6.0322,6.03,6.026,6.0544,6.0544,6.0545,6.0035,6.0037,6.0164,6.0197,6.0269,6.0328,6.0465,6.0554,6.0577,6.0557,6.045,6.0437,6.0345,6.0315,6.0293,6.0259,6.0185,0,0]}]]